Regional Weather Roundup
Issued by NWS

Home | Current Version | Previous Version | Graphics & Text | Print | Product List | Glossary On
Versions: 1 2 3 4 5 6 7 8 9 10 11 12 13 14 15 16 17 18 19 20 21 22 23 24 25 26 27 28 29 30 31 32 33 34 35 36 37 38 39 40 41 42 43 44 45 46 47 48 49 50
000
ASUS43 KBIS 241010
RWRND

NORTH DAKOTA REGIONAL WEATHER ROUNDUP
NATIONAL WEATHER SERVICE BISMARCK ND
500 AM CDT TUE APR 24 2018

NOTE: "FAIR" INDICATES FEW OR NO CLOUDS BELOW 12,000 FEET WITH NO
SIGNIFICANT WEATHER AND/OR OBSTRUCTIONS TO VISIBILITY.


NDZ001>003-009>011-017-241100-
NORTHWEST NORTH DAKOTA

CITY           SKY/WX    TMP DP  RH WIND       PRES   REMARKS
WILLISTON      FAIR      27  23  85 CALM      30.45R
MINOT          PTCLDY    33  24  69 NW10      30.39R
MINOT AFB      CLEAR     29  23  78 NW9       30.39R
$$

NDZ018>021-031>035-040>046-241100-
SOUTHWEST NORTH DAKOTA

CITY           SKY/WX    TMP DP  RH WIND       PRES   REMARKS
BISMARCK       CLOUDY    40  35  83 N6        30.36S
DICKINSON      MOCLDY    36  29  75 N8        30.38R
GARRISON         N/A     35  28  75 N9        30.39R
HETTINGER ARPT CLOUDY    33  31  92 N13       30.37S FOG
$$

NDZ004>008-012>016-024-026-027-054-241100-
NORTHEAST NORTH DAKOTA

CITY           SKY/WX    TMP DP  RH WIND       PRES   REMARKS
GRAND FORKS    CLOUDY    41  35  79 N13       30.31R
GRND FRKS AFB  CLOUDY    42  32  67 N9        30.32R
DEVILS LAKE    FAIR      38  31  76 N10       30.36R
$$

NDZ022-023-025-028>030-036>039-047>053-241100-
SOUTHEAST NORTH DAKOTA

CITY           SKY/WX    TMP DP  RH WIND       PRES   REMARKS
FARGO          LGT RAIN  44  40  85 N17       30.26R
JAMESTOWN      LGT RAIN  41  35  79 N13       30.31R
$$





USA.gov is the U.S. government's official web portal to all federal, state and local government web resources and services.